Regional Weather Roundup
Issued by NWS

Home | Current Version | Previous Version | Text Only | Print | Product List | Glossary Off
Versions: 1 2 3 4 5 6 7 8 9 10 11 12 13 14 15 16 17 18 19 20 21 22 23 24 25 26 27 28 29 30 31 32 33 34 35 36 37 38 39 40 41 42 43 44 45 46 47 48 49 50

000
ASUS43 KBIS 230510
RWRND

NORTH DAKOTA REGIONAL WEATHER ROUNDUP
NATIONAL WEATHER SERVICE BISMARCK ND
1200 AM CDT WED JUL 23 2014

NOTE: "FAIR" INDICATES FEW OR NO CLOUDS BELOW 12,000 FEET WITH NO
SIGNIFICANT WEATHER AND/OR OBSTRUCTIONS TO VISIBILITY.


NDZ001>003-009>011-017-230600-
NORTHWEST NORTH DAKOTA

CITY           SKY/WX    TMP DP  RH WIND       PRES   REMARKS
WILLISTON      CLOUDY    73  62  68 SE8       30.23R
MINOT          CLOUDY    67  60  78 CALM      30.25R
MINOT AFB      CLOUDY    69  61  76 E5        30.25R
$$

NDZ018>021-031>035-040>046-230600-
SOUTHWEST NORTH DAKOTA

CITY           SKY/WX    TMP DP  RH WIND       PRES   REMARKS
BISMARCK       CLOUDY    70  62  76 E3        30.24R
DICKINSON      CLEAR     63  59  87 SE6       30.25R
GARRISON         N/A     69  65  86 E3        30.25R
HETTINGER ARPT PTCLDY    64  60  87 E3        30.24S
$$

NDZ004>008-012>016-024-026-027-054-230600-
NORTHEAST NORTH DAKOTA

CITY           SKY/WX    TMP DP  RH WIND       PRES   REMARKS
GRAND FORKS    CLEAR     62  59  90 CALM      30.23R
GRND FRKS AFB  CLEAR     62  62  99 NW2       30.25R
DEVILS LAKE    CLOUDY    68  59  73 SE7       30.25R
$$

NDZ022-023-025-028>030-036>039-047>053-230600-
SOUTHEAST NORTH DAKOTA

CITY           SKY/WX    TMP DP  RH WIND       PRES   REMARKS
FARGO          CLEAR     63  58  83 W5        30.25R
JAMESTOWN      PTCLDY    64  59  83 SE6       30.25S
$$




USA.gov is the U.S. government's official web portal to all federal, state and local government web resources and services.